Content
SEND FEEDBACK

Daily
Averages
Monthly
Summary
Mexico

CANCUN, QUINTANA ROO


Home > North America > Mexico > Quintana Roo
Elevation: 9 meters     Latitude: 21 09N     Longitude: 086 49W

WEATHER
 
SELECT A DAY
Number of Records: 166,596;   Date Range: 1/1/95 - 10/30/14
 
SHARE

PRINT THIS DATA

[ ← Previous Day ]
WEATHER ALMANAC - 5 FEBRUARY, 2013
[ Next Day → ]
[ °F ]   °C
Weather ElementAverageHighLow
Temperature23.4 °C28 °C (11:49 am)17 °C (3:45 am)
Dewpoint19.3 °C21 °C (7:40 am)16 °C (6:44 am)
Humidity78.7 %100 % (3:45 am)61 % (9:44 am)
Barometer1015.2 hPa1016.9 hPa (10:41 am)1013.9 hPa (2:46 am)
Wind Speed9.8 km/h20.4 km/h (1:42 pm)
Weather ElementAverage
Visibility11.3 km
Wind DirectionE (95.2 °)

Weather ElementTotal
Precipitation---
Cooling Degree Days4.2 (Base 18.3)
Growing Degree Days12.5 (Base 10)
Averaged from 23 records on 5 February, 2013
WEATHER CONDITIONS BREAKOUT
WIND DIRECTION BREAKOUT
WEATHER BY HOUR - 5 FEBRUARY, 2013
[ °F ]   °C
Local TimeTemperatureDewpointHumidityBarometerVisibilityWind DirectionWind SpeedGust SpeedPrecipitationEventsConditions
1:44 AM18 °C17 °C94 %1014.6 hPa11.3 kmCalmScattered Clouds
2:46 AM18 °C17 °C94 %1013.9 hPa11.3 kmCalmScattered Clouds
3:45 AM17 °C17 °C100 %1013.9 hPa11.3 kmCalmScattered Clouds
4:44 AM17 °C17 °C100 %1014.2 hPa11.3 kmCalmScattered Clouds
5:45 AM17 °C17 °C100 %1014.6 hPa11.3 kmNE (50°)9.3 km/hPartly Cloudy
6:44 AM17 °C16 °C94 %1015.2 hPa11.3 kmENE (70°)9.3 km/hPartly Cloudy
7:40 AM22 °C21 °C94 %1015.6 hPa11.3 kmEast (90°)5.6 km/hClear
8:45 AM26 °C21 °C74 %1016.6 hPa11.3 kmESE (110°)11.1 km/hScattered Clouds
9:44 AM27 °C19 °C61 %1016.6 hPa11.3 kmEast (90°)13 km/hMostly Cloudy
10:41 AM27 °C19 °C61 %1016.9 hPa11.3 kmESE (110°)13 km/hMostly Cloudy
11:49 AM28 °C20 °C62 %1016.3 hPa11.3 kmSE (130°)14.8 km/hMostly Cloudy
12:41 PM27 °C21 °C70 %1015.2 hPa11.3 kmESE (110°)13 km/hMostly Cloudy
1:42 PM27 °C20 °C65 %1014.6 hPa11.3 kmSE (130°)20.4 km/hMostly Cloudy
2:48 PM27 °C20 °C65 %1014.2 hPa11.3 kmSE (130°)16.7 km/hMostly Cloudy
3:43 PM27 °C20 °C65 %1014.2 hPa11.3 kmSSE (150°)18.5 km/hMostly Cloudy
4:46 PM26 °C20 °C69 %1014.2 hPa11.3 kmSSE (160°)13 km/hScattered Clouds
5:54 PM25 °C20 °C74 %1014.6 hPa11.3 kmESE (120°)13 km/hScattered Clouds
6:44 PM25 °C21 °C78 %1014.6 hPa11.3 kmESE (120°)11.1 km/hScattered Clouds
7:51 PM24 °C20 °C78 %1015.6 hPa11.3 kmESE (110°)5.6 km/hScattered Clouds
8:46 PM24 °C20 °C78 %1015.6 hPa11.3 kmSE (130°)7.4 km/hScattered Clouds
9:44 PM24 °C20 °C78 %1016.3 hPa11.3 kmSE (130°)9.3 km/hScattered Clouds
10:45 PM24 °C20 °C78 %1016.3 hPa11.3 kmESE (120°)13 km/hScattered Clouds
11:46 PM24 °C20 °C78 %1015.2 hPa11.3 kmSE (130°)7.4 km/hScattered Clouds
Hourly data recorded from MMUN, located 0 kilometers away from Cancun, Quintana Roo







STORIES FROM OUR PARTNERS